Precipitable_Water
0.74 0.72 0.71 0.73 0.60 0.53 0.49 0.45 0.42 0.42 0.40 0.36 0.36 0.36 0.36 0.36 0.38 0.36 0.38 0.38 0.37 0.38 0.37 0.37 0.35 0.34 0.30 0.29 0.28 0.27 0.25 0.24 0.21 0.20 0.22 0.24 0.26 0.27 0.27 0.28 0.28 0.28 0.27
0.72 0.73 0.76 0.63 0.52 0.48 0.45 0.43 0.42 0.40 0.38 0.36 0.36 0.36 0.36 0.35 0.35 0.34 0.34 0.35 0.34 0.33 0.33 0.32 0.29 0.27 0.26 0.25 0.24 0.23 0.22 0.22 0.20 0.18 0.20 0.23 0.26 0.27 0.26 0.26 0.27 0.28 0.28
0.72 0.69 0.60 0.54 0.50 0.46 0.43 0.43 0.42 0.39 0.37 0.36 0.37 0.36 0.35 0.35 0.35 0.36 0.34 0.34 0.32 0.31 0.30 0.28 0.25 0.24 0.22 0.21 0.21 0.20 0.20 0.20 0.21 0.21 0.21 0.25 0.25 0.26 0.25 0.26 0.26 0.26 0.28
0.65 0.59 0.50 0.50 0.48 0.43 0.42 0.42 0.41 0.38 0.37 0.37 0.37 0.37 0.35 0.35 0.34 0.33 0.31 0.30 0.29 0.26 0.26 0.24 0.23 0.21 0.20 0.19 0.18 0.19 0.19 0.20 0.20 0.21 0.22 0.23 0.24 0.26 0.26 0.24 0.24 0.26 0.25
0.60 0.50 0.48 0.48 0.45 0.43 0.43 0.42 0.39 0.38 0.38 0.38 0.36 0.35 0.36 0.34 0.31 0.30 0.28 0.26 0.24 0.23 0.23 0.22 0.21 0.20 0.19 0.19 0.19 0.19 0.20 0.20 0.20 0.21 0.21 0.23 0.25 0.25 0.24 0.24 0.24 0.23 0.25
0.53 0.52 0.50 0.43 0.42 0.42 0.42 0.39 0.37 0.36 0.36 0.36 0.37 0.35 0.34 0.33 0.31 0.29 0.27 0.25 0.23 0.22 0.21 0.20 0.20 0.20 0.21 0.21 0.21 0.22 0.22 0.20 0.21 0.24 0.24 0.23 0.23 0.24 0.26 0.26 0.24 0.22 0.20
0.54 0.50 0.44 0.42 0.40 0.41 0.37 0.36 0.35 0.34 0.35 0.35 0.34 0.35 0.33 0.34 0.32 0.29 0.26 0.24 0.22 0.22 0.22 0.21 0.20 0.20 0.22 0.21 0.21 0.20 0.22 0.24 0.26 0.26 0.24 0.25 0.25 0.26 0.24 0.23 0.22 0.24 0.23
0.51 0.45 0.39 0.42 0.41 0.38 0.36 0.35 0.34 0.35 0.34 0.33 0.34 0.34 0.33 0.34 0.32 0.28 0.25 0.24 0.23 0.23 0.23 0.21 0.20 0.20 0.20 0.19 0.17 0.19 0.21 0.23 0.24 0.25 0.26 0.26 0.25 0.25 0.24 0.23 0.25 0.24 0.24
0.47 0.39 0.43 0.41 0.38 0.35 0.33 0.32 0.35 0.33 0.31 0.32 0.33 0.33 0.34 0.34 0.31 0.28 0.25 0.23 0.23 0.23 0.22 0.21 0.22 0.19 0.19 0.18 0.16 0.19 0.19 0.20 0.25 0.23 0.23 0.26 0.26 0.26 0.26 0.25 0.24 0.23 0.21
0.40 0.44 0.40 0.37 0.35 0.32 0.31 0.32 0.34 0.32 0.31 0.30 0.30 0.33 0.35 0.33 0.31 0.28 0.25 0.23 0.22 0.22 0.22 0.22 0.21 0.19 0.19 0.16 0.15 0.17 0.18 0.19 0.19 0.19 0.24 0.26 0.27 0.27 0.28 0.29 0.28 0.24 0.23
0.48 0.41 0.39 0.36 0.32 0.32 0.32 0.32 0.32 0.31 0.31 0.29 0.29 0.32 0.33 0.33 0.31 0.28 0.25 0.23 0.22 0.21 0.20 0.20 0.20 0.20 0.18 0.15 0.16 0.16 0.18 0.17 0.19 0.22 0.25 0.26 0.27 0.26 0.28 0.28 0.28 0.28 0.25
0.41 0.39 0.35 0.32 0.32 0.31 0.31 0.31 0.31 0.31 0.29 0.28 0.29 0.29 0.30 0.31 0.31 0.27 0.25 0.24 0.22 0.20 0.20 0.21 0.20 0.17 0.16 0.15 0.16 0.17 0.16 0.19 0.21 0.20 0.23 0.24 0.24 0.24 0.27 0.29 0.32 0.33 0.33
0.38 0.33 0.31 0.32 0.33 0.33 0.31 0.29 0.28 0.28 0.28 0.28 0.28 0.28 0.29 0.30 0.29 0.29 0.26 0.25 0.23 0.22 0.22 0.21 0.19 0.17 0.17 0.17 0.17 0.18 0.19 0.19 0.18 0.19 0.20 0.22 0.25 0.27 0.27 0.29 0.31 0.32 0.34
0.33 0.31 0.32 0.32 0.31 0.32 0.32 0.30 0.28 0.27 0.27 0.28 0.27 0.27 0.28 0.27 0.26 0.28 0.29 0.26 0.25 0.24 0.24 0.23 0.19 0.19 0.19 0.18 0.18 0.19 0.19 0.19 0.17 0.18 0.19 0.21 0.25 0.26 0.25 0.27 0.27 0.28 0.28
0.32 0.32 0.31 0.31 0.31 0.31 0.29 0.29 0.29 0.29 0.29 0.28 0.29 0.29 0.27 0.25 0.25 0.28 0.28 0.26 0.26 0.25 0.22 0.21 0.19 0.19 0.18 0.18 0.18 0.18 0.18 0.18 0.17 0.16 0.19 0.20 0.19 0.21 0.25 0.26 0.26 0.27 0.26
0.31 0.30 0.30 0.29 0.29 0.29 0.28 0.27 0.30 0.30 0.30 0.30 0.31 0.29 0.27 0.26 0.25 0.26 0.25 0.25 0.25 0.24 0.21 0.19 0.19 0.19 0.18 0.18 0.17 0.17 0.18 0.18 0.17 0.17 0.18 0.19 0.20 0.17 0.20 0.25 0.25 0.24 0.24
0.27 0.27 0.28 0.28 0.27 0.27 0.27 0.27 0.25 0.29 0.32 0.31 0.32 0.30 0.28 0.26 0.26 0.27 0.26 0.26 0.26 0.25 0.20 0.19 0.20 0.20 0.19 0.19 0.18 0.17 0.16 0.17 0.17 0.17 0.17 0.19 0.19 0.20 0.18 0.20 0.23 0.23 0.22
0.29 0.29 0.29 0.30 0.30 0.29 0.28 0.28 0.28 0.27 0.27 0.29 0.33 0.33 0.31 0.29 0.28 0.27 0.27 0.27 0.24 0.25 0.22 0.20 0.20 0.21 0.21 0.19 0.19 0.18 0.18 0.18 0.17 0.16 0.17 0.18 0.18 0.19 0.20 0.17 0.17 0.21 0.21
0.29 0.30 0.31 0.31 0.30 0.30 0.30 0.29 0.29 0.28 0.28 0.29 0.31 0.32 0.32 0.31 0.30 0.29 0.28 0.25 0.23 0.24 0.24 0.23 0.23 0.22 0.22 0.21 0.21 0.20 0.20 0.18 0.18 0.17 0.16 0.16 0.17 0.18 0.18 0.19 0.18 0.16 0.18
0.30 0.31 0.31 0.31 0.31 0.29 0.30 0.30 0.29 0.28 0.28 0.29 0.30 0.30 0.32 0.30 0.29 0.30 0.29 0.27 0.24 0.23 0.24 0.24 0.24 0.23 0.23 0.23 0.23 0.22 0.21 0.20 0.19 0.18 0.16 0.16 0.17 0.17 0.17 0.17 0.19 0.18 0.16
0.30 0.32 0.33 0.32 0.33 0.32 0.30 0.30 0.29 0.29 0.29 0.29 0.30 0.33 0.33 0.31 0.29 0.30 0.31 0.31 0.29 0.27 0.25 0.25 0.25 0.24 0.24 0.23 0.23 0.22 0.22 0.21 0.20 0.19 0.17 0.17 0.16 0.16 0.17 0.17 0.17 0.18 0.18
0.30 0.31 0.31 0.30 0.31 0.31 0.31 0.31 0.31 0.29 0.29 0.29 0.30 0.33 0.34 0.32 0.31 0.31 0.31 0.31 0.31 0.32 0.32 0.28 0.26 0.26 0.25 0.24 0.23 0.23 0.22 0.22 0.22 0.21 0.19 0.17 0.16 0.16 0.17 0.16 0.16 0.16 0.17
0.30 0.29 0.29 0.29 0.29 0.29 0.28 0.27 0.28 0.30 0.29 0.30 0.30 0.31 0.33 0.32 0.32 0.32 0.31 0.32 0.32 0.33 0.33 0.32 0.30 0.27 0.27 0.27 0.25 0.24 0.23 0.23 0.23 0.23 0.20 0.18 0.17 0.16 0.16 0.16 0.16 0.16 0.15
0.31 0.28 0.28 0.28 0.28 0.28 0.28 0.27 0.29 0.30 0.30 0.30 0.30 0.31 0.32 0.32 0.32 0.32 0.33 0.33 0.33 0.34 0.34 0.34 0.33 0.31 0.28 0.28 0.27 0.26 0.25 0.25 0.25 0.23 0.21 0.19 0.18 0.17 0.16 0.15 0.15 0.16 0.16
0.31 0.31 0.31 0.29 0.28 0.28 0.27 0.27 0.28 0.29 0.29 0.30 0.30 0.30 0.30 0.30 0.30 0.30 0.31 0.33 0.33 0.34 0.34 0.34 0.34 0.32 0.31 0.29 0.28 0.27 0.26 0.25 0.25 0.24 0.23 0.20 0.19 0.17 0.15 0.14 0.15 0.14 0.15
0.28 0.29 0.30 0.29 0.28 0.27 0.27 0.27 0.27 0.28 0.29 0.30 0.30 0.31 0.29 0.27 0.26 0.26 0.28 0.29 0.30 0.32 0.33 0.34 0.33 0.32 0.31 0.31 0.30 0.29 0.27 0.25 0.25 0.23 0.23 0.21 0.19 0.18 0.17 0.16 0.15 0.14 0.15
Wind_Speed
26 27 29 30 31 32 34 36 37 38 40 41 42 44 45 46 47 47 47 46 45 44 42 39 37 35 33 33 34 35 36 36 38 38 37 37 36 35 36 37 37 37 37
28 31 31 30 32 34 35 36 38 39 40 42 43 44 46 47 47 47 45 45 44 41 37 35 34 32 32 33 34 35 36 37 38 38 36 35 34 35 36 36 36 36 36
31 31 30 32 34 35 36 37 39 39 41 43 44 45 46 47 47 45 44 42 40 37 35 32 31 31 31 32 33 35 36 36 35 35 34 33 34 34 35 35 35 35 35
31 29 31 33 35 36 36 37 39 41 42 43 44 45 46 46 45 43 42 40 38 35 33 31 30 30 30 32 34 35 35 34 33 33 32 31 32 33 33 34 33 32 32
30 31 33 34 35 36 37 38 40 42 43 44 44 45 45 45 42 41 41 38 36 33 31 29 28 29 31 31 32 34 33 32 31 31 30 31 32 32 32 33 32 32 29
30 31 34 35 35 36 37 39 41 42 43 45 45 46 45 44 41 41 39 36 34 31 29 27 28 29 29 32 31 31 31 31 31 30 29 30 32 31 30 30 29 27 25
31 33 34 34 35 36 38 40 41 43 44 45 45 44 44 43 40 38 36 34 31 28 27 26 27 28 29 30 30 31 30 29 28 28 29 29 30 30 30 29 27 25 24
32 33 34 34 36 38 39 40 42 43 44 45 44 43 43 41 38 35 34 32 28 26 25 25 26 27 28 29 30 29 28 27 25 25 26 28 29 28 26 24 24 24 22
32 34 35 35 37 38 39 41 43 43 44 44 43 43 41 38 35 33 31 29 26 24 24 24 25 26 27 28 28 27 26 25 24 25 26 26 25 24 22 21 19 18 17
33 34 35 37 38 39 41 42 42 43 43 43 43 41 39 36 34 31 28 26 24 23 22 23 23 24 26 27 26 25 25 24 24 24 23 22 21 20 19 17 17 16 15
34 35 36 37 39 40 41 42 43 43 43 44 42 40 38 34 31 28 26 24 22 21 21 21 21 24 25 26 25 24 23 24 22 21 21 20 19 17 16 15 15 14 14
34 36 37 38 39 39 40 41 42 42 43 42 40 38 35 32 29 26 25 23 21 21 20 20 21 23 24 24 23 22 23 21 20 19 19 18 17 16 15 14 15 14 13
36 37 38 39 39 39 40 42 42 42 41 40 38 35 32 29 26 24 23 22 20 19 19 19 20 21 22 22 21 21 21 19 19 18 17 18 17 16 15 14 14 13 12
36 37 38 39 39 40 42 41 41 41 40 38 36 32 29 27 25 24 22 20 20 19 19 18 20 19 19 20 20 20 20 19 18 18 17 17 17 15 14 13 13 12 10
35 37 38 39 40 40 41 41 41 40 38 36 33 30 27 25 24 22 21 20 20 19 19 19 18 17 18 19 19 20 19 19 18 17 16 16 16 15 14 13 11 10 9
36 37 39 39 40 41 41 42 41 39 37 34 31 29 27 26 24 23 22 21 20 20 19 18 18 17 17 18 18 19 19 19 18 17 16 15 15 15 14 12 10 9 8
37 38 39 40 40 41 42 41 39 37 35 32 29 27 26 25 24 23 22 21 21 19 19 19 18 17 17 17 17 18 18 18 19 17 16 15 14 14 13 12 10 9 7
39 40 41 41 42 42 41 40 38 36 34 30 28 26 25 24 23 23 22 21 21 20 20 19 18 18 17 17 17 17 17 17 18 18 17 15 14 13 12 11 10 9 7
41 42 43 43 43 42 40 38 36 35 33 30 28 26 24 23 23 22 21 21 21 21 20 20 20 19 18 18 17 17 17 17 17 17 17 16 14 13 12 11 10 9 8
44 44 44 44 42 40 38 37 35 34 32 29 27 26 24 23 22 22 21 21 21 21 21 21 21 20 19 18 18 17 17 16 16 16 16 16 15 13 12 11 10 9 8
45 44 43 42 41 39 38 36 34 32 31 29 28 26 25 24 23 23 22 22 22 21 21 21 21 21 20 20 19 18 17 17 16 16 15 15 15 14 13 12 11 10 9
45 44 43 41 40 38 37 36 34 32 31 30 28 26 25 24 24 23 23 23 22 22 21 21 21 21 21 21 20 19 18 17 16 16 15 15 15 14 14 12 12 11 10
44 43 41 40 38 38 36 35 34 32 31 29 27 26 25 25 24 24 24 23 23 23 22 22 22 22 22 21 21 20 19 18 17 16 15 15 15 14 14 14 12 12 11
41 40 38 37 36 34 33 33 31 30 29 27 26 25 25 25 25 25 26 26 26 25 25 24 23 22 22 21 21 20 20 18 17 17 16 15 15 15 14 14 13 13 13
41 40 36 35 33 32 32 31 29 28 27 26 25 25 25 25 25 26 26 26 26 26 25 25 24 24 24 23 23 22 21 20 18 18 17 16 16 15 15 15 14 14 13
38 36 36 33 31 32 31 30 28 27 26 25 25 25 25 25 25 25 25 25 25 25 25 25 25 25 24 24 24 23 22 21 20 19 18 17 17 16 16 15 15 15 14
Wind_Direction
287 292 294 294 299 303 305 306 308 309 311 312 313 313 314 315 314 313 311 310 309 307 305 303 301 298 297 297 298 299 299 299 298 299 298 297 295 293 292 291 289 285 282
288 292 292 292 299 302 304 306 308 310 311 312 313 314 315 315 315 314 313 312 311 308 306 303 301 299 299 299 300 300 300 300 299 299 300 297 295 295 295 293 291 287 284
290 292 290 295 299 302 304 306 308 310 312 313 313 314 315 316 316 315 314 313 311 309 307 304 302 301 300 301 302 303 303 302 300 300 300 298 297 298 297 295 293 289 285
291 289 293 296 300 302 304 306 309 310 312 313 314 315 316 315 316 315 315 313 312 309 307 304 303 302 303 305 305 305 305 303 302 301 300 300 300 301 299 298 295 292 288
289 291 295 298 300 302 304 306 309 310 312 312 314 314 315 315 314 315 314 313 311 309 306 304 304 304 305 306 307 308 306 305 303 302 301 302 303 303 302 300 297 293 289
290 292 296 298 300 301 304 306 309 310 312 312 313 313 314 314 314 313 313 312 310 308 306 305 306 307 308 309 309 309 307 305 304 302 303 304 305 306 305 304 300 295 289
290 295 297 298 300 302 305 307 310 311 312 312 312 313 313 313 313 312 312 311 309 307 306 306 308 310 311 312 312 312 309 307 304 303 303 305 308 307 306 304 301 296 289
293 296 298 299 300 303 305 307 309 311 313 313 313 313 313 312 311 310 311 310 308 306 306 307 310 312 315 316 316 315 313 311 309 308 308 309 309 310 309 306 304 297 291
294 297 298 300 302 303 306 308 309 311 312 314 313 313 312 311 310 309 309 308 306 305 306 308 311 314 317 319 318 317 316 314 311 312 312 313 313 313 311 310 307 307 301
296 299 300 301 303 304 305 308 309 311 313 314 314 313 311 310 308 306 306 306 305 304 306 310 314 318 320 322 321 319 318 317 316 316 318 319 320 320 319 314 308 306 303
297 299 300 301 303 305 306 307 309 310 312 314 314 312 311 309 307 303 303 303 301 303 306 310 314 321 324 324 324 322 321 320 319 319 322 323 325 326 328 325 320 311 304
299 301 301 303 304 305 306 310 310 311 312 313 313 312 310 307 304 301 299 297 297 299 303 309 314 321 325 326 327 327 327 325 324 323 325 326 327 328 329 331 328 321 309
299 301 303 303 303 305 306 309 311 312 312 313 312 311 309 307 305 301 297 294 293 296 300 305 312 319 325 330 332 331 332 331 330 327 326 329 327 326 325 328 335 334 336
300 302 304 304 305 306 308 310 311 312 311 311 311 309 307 305 304 302 296 292 291 293 297 301 309 315 322 329 333 335 335 334 333 330 327 329 331 328 326 325 329 335 338
299 302 304 306 306 307 309 310 310 310 310 309 308 306 304 303 303 300 295 291 290 291 294 298 303 311 319 327 333 337 338 337 336 335 331 330 333 335 328 326 325 330 337
300 302 305 306 307 308 309 309 309 308 307 306 303 301 300 300 299 296 293 289 288 287 289 292 296 303 312 320 328 334 338 339 338 335 334 331 332 336 336 329 326 323 325
301 304 305 307 308 309 309 309 310 309 305 302 300 297 297 296 296 294 292 288 285 284 284 287 290 296 303 311 319 327 333 338 340 337 334 333 331 332 336 339 332 325 318
301 303 304 305 307 308 309 308 308 308 306 301 298 294 293 293 294 292 290 287 285 279 280 283 285 289 295 302 310 318 326 331 336 340 337 333 330 329 330 336 338 334 321
301 302 303 305 306 306 307 305 305 305 303 299 296 293 290 289 291 291 289 286 285 279 279 279 280 284 289 294 301 309 315 321 328 333 338 336 330 327 324 325 329 332 328
301 301 302 303 303 304 304 304 303 303 301 297 292 289 288 287 288 288 286 286 284 281 279 278 277 279 283 287 293 299 305 311 317 324 330 334 333 325 319 317 316 319 321
301 301 301 302 301 302 302 302 300 300 300 296 290 286 284 282 285 286 286 285 283 282 280 279 277 276 278 281 286 291 296 301 307 313 320 326 331 329 319 311 307 304 305
300 300 300 300 299 299 299 299 297 294 296 294 290 284 281 279 281 282 284 285 284 282 280 279 277 276 276 277 279 283 288 293 298 302 308 315 321 325 325 312 302 297 293
299 299 299 299 298 297 297 298 296 292 291 291 288 283 280 279 279 280 281 282 282 282 281 279 277 276 275 275 274 277 281 286 290 295 299 304 310 316 320 319 306 294 287
298 298 298 298 299 298 298 299 297 292 289 288 286 283 281 280 280 280 280 280 280 279 278 276 275 275 275 273 272 273 275 279 284 288 291 295 300 305 310 313 312 299 286
297 293 293 297 296 298 299 298 296 293 290 286 284 283 282 282 282 282 282 281 280 278 276 274 272 274 272 270 270 269 270 272 277 281 284 288 291 296 300 304 308 305 292
296 291 291 292 294 297 298 298 296 293 291 288 286 284 283 283 283 283 283 283 282 279 276 273 270 271 271 270 267 265 265 267 271 274 278 283 285 289 292 296 300 302 296